User: anonymous   Login
Location: Berkeley
(37.8716°N, 122.2727°W)
Time: 12:59:59
(UTC-07:00)
Language:

NOAA 18 - Orbit

View from above orbital plane
View from above orbital plane
View from above satellite
View from above satellite

Ground track
Ground track

The orbit data is extracted from the following two-line orbital elements,

1 28654U 05018A   19295.37422783  .00000069  00000-0  62258-4 0  9993
2 28654  99.0815 344.1395 0014387 180.6021 179.5135 14.12460634743252
Epoch (UTC): 22 October 2019 08:58:53
Eccentricity: 0.0014387
inclination: 99.0815°
perigee height: 840 km
apogee height: 861 km
right ascension of ascending node: 344.1395°
argument of perigee: 180.6021°
revolutions per day: 14.12460634
mean anomaly at epoch: 179.5135°
orbit number at epoch: 74325

The dashed part of the orbit path shows where the satellite is in the earth's shadow,  

DLR